This demonstration page uses our WeatherBlox Daily Observations layout. Learn more.

Hourly Observations for January 12, 2019

Temp ( °F °C ) Dew Point ( °F °C ) Humidity (%) Winds ( mph kmh ) Pressure ( in mb ) Visibility ( mi km ) Precip ( " mm )
12:15 am 00:15 Clear 30 -1 19 -7 64 64 N 3 6 30.48 1032 10 16.09344 0 0
12:35 am 00:35 Clear 27 -3 23 -5 86 86 Calm 30.48 1032 10 16.09344 0 0
12:55 am 00:55 Clear 28 -2 21 -6 74 74 Calm 30.48 1032 10 16.09344 0 0
1:15 am 01:15 Clear 28 -2 21 -6 74 74 Calm 30.48 1032 10 16.09344 0 0
1:35 am 01:35 Clear 27 -3 21 -6 80 80 Calm 30.5 1033 10 16.09344 0 0
1:55 am 01:55 Clear 27 -3 21 -6 80 80 Calm 30.5 1033 10 16.09344 0 0
2:15 am 02:15 Clear 28 -2 21 -6 74 74 Calm 30.5 1033 10 16.09344 0 0
2:35 am 02:35 Clear 28 -2 21 -6 74 74 Calm 30.5 1033 10 16.09344 0 0
2:55 am 02:55 Clear 27 -3 23 -5 86 86 Calm 30.5 1033 10 16.09344 0 0
3:15 am 03:15 Clear 28 -2 23 -5 80 80 Calm 30.5 1033 10 16.09344 0 0
3:35 am 03:35 Clear 27 -3 21 -6 80 80 Calm 30.5 1033 10 16.09344 0 0
3:55 am 03:55 Clear 27 -3 23 -5 86 86 Calm 30.5 1033 10 16.09344 0 0
4:15 am 04:15 Clear 27 -3 23 -5 86 86 Calm 30.5 1033 10 16.09344 0 0
4:35 am 04:35 Clear 27 -3 23 -5 86 86 Calm 30.5 1033 10 16.09344 0 0
4:55 am 04:55 Clear 27 -3 23 -5 86 86 Calm 30.5 1033 10 16.09344 0 0
5:15 am 05:15 Clear 27 -3 23 -5 86 86 Calm 30.53 1034 10 16.09344 0 0
5:35 am 05:35 Partly Cloudy 27 -3 23 -5 86 86 Calm 30.53 1034 10 16.09344 0 0
5:55 am 05:55 Partly Cloudy 27 -3 23 -5 86 86 Calm 30.53 1034 10 16.09344 0 0
6:15 am 06:15 Clear 27 -3 23 -5 86 86 Calm 30.53 1034 10 16.09344 0 0
6:35 am 06:35 Clear 28 -2 23 -5 80 80 Calm 30.53 1034 10 16.09344 0 0
6:55 am 06:55 Partly Cloudy 28 -2 25 -4 86 86 Calm 30.53 1034 10 16.09344 0 0
7:15 am 07:15 Mostly Cloudy 28 -2 25 -4 86 86 Calm 30.53 1034 10 16.09344 0 0
7:35 am 07:35 Cloudy 28 -2 27 -3 93 93 Calm 30.53 1034 10 16.09344 0 0
7:55 am 07:55 Cloudy 28 -2 25 -4 86 86 Calm 30.53 1034 10 16.09344 0 0
8:15 am 08:15 Cloudy 28 -2 25 -4 86 86 Calm 30.53 1034 10 16.09344 0 0
8:35 am 08:35 Cloudy 30 -1 27 -3 86 86 Calm 30.53 1034 10 16.09344 0 0
8:55 am 08:55 Cloudy 30 -1 23 -5 75 75 Calm 30.53 1034 10 16.09344 0 0
9:15 am 09:15 Cloudy 30 -1 25 -4 80 80 Calm 30.56 1035 10 16.09344 0 0
9:35 am 09:35 Cloudy 30 -1 25 -4 80 80 Calm 30.56 1035 10 16.09344 0 0
9:55 am 09:55 Cloudy 32 0 23 -5 69 69 SE 3 6 30.56 1035 10 16.09344 0 0
10:15 am 10:15 Cloudy 32 0 23 -5 69 69 Calm 30.56 1035 10 16.09344 0 0
10:35 am 10:35 Cloudy 32 0 23 -5 69 69 SE 5 7 30.56 1035 10 16.09344 0 0
10:55 am 10:55 Cloudy 34 1 21 -6 60 60 S 6 9 30.53 1034 10 16.09344 0 0
11:15 am 11:15 Cloudy 34 1 21 -6 60 60 S 5 7 30.53 1034 10 16.09344 0 0
11:35 am 11:35 Cloudy 34 1 21 -6 60 60 SSW 8 13 30.53 1034 10 16.09344 0 0
11:55 am 11:55 Cloudy 34 1 21 -6 60 60 S 6 9 30.53 1034 10 16.09344 0 0
12:15 pm 12:15 Cloudy 34 1 21 -6 60 60 S 6 9 30.53 1034 10 16.09344 0 0
12:35 pm 12:35 Cloudy 34 1 21 -6 60 60 S 7 11 30.53 1034 10 16.09344 0 0
12:55 pm 12:55 Cloudy 34 1 21 -6 60 60 SSW 8 13 30.53 1034 10 16.09344 0 0
1:15 pm 13:15 Cloudy 34 1 23 -5 65 65 SSW 9 15 30.53 1034 10 16.09344 0 0
1:35 pm 13:35 Cloudy 34 1 25 -4 70 70 S 6 9 30.53 1034 10 16.09344 0 0
1:55 pm 13:55 Cloudy with Light Snow 34 1 27 -3 75 75 SSW 6 9 30.53 1034 5 8.04672 0 0
2:15 pm 14:15 Cloudy with Light Snow 34 1 28 -2 81 81 SSW 5 7 30.53 1034 4 6.437376 0 0
2:35 pm 14:35 Cloudy with Light Snow 32 0 30 -1 93 93 S 6 9 30.53 1034 4 6.437376 0 0
2:55 pm 14:55 Cloudy with Light Snow 32 0 30 -1 93 93 S 6 9 30.5 1033 5 8.04672 0 0
3:15 pm 15:15 Cloudy 32 0 30 -1 93 93 Calm 30.5 1033 7 11.265408 0 0
3:35 pm 15:35 Cloudy with Light Snow 32 0 30 -1 93 93 S 5 7 30.5 1033 4 6.437376 0 0
3:55 pm 15:55 Cloudy with Light Snow 32 0 30 -1 93 93 SSW 6 9 30.53 1034 2.5 4.02336 0 0
4:15 pm 16:15 Cloudy with Light Snow 32 0 32 0 100 100 SSW 6 9 30.53 1034 1 1.609344 0 0
4:35 pm 16:35 Cloudy with Light Snow 32 0 32 0 100 100 SSE 5 7 30.5 1033 1.25 2.01168 0 0
4:55 pm 16:55 Cloudy with Light Snow 32 0 32 0 100 100 Calm 30.5 1033 2.5 4.02336 0 0
5:15 pm 17:15 Cloudy with Light Snow 32 0 32 0 100 100 SE 3 6 30.5 1033 1.5 2.414016 0 0
5:35 pm 17:35 Cloudy with Light Snow 32 0 32 0 100 100 Calm 30.5 1033 2 3.218688 0 0
5:55 pm 17:55 Cloudy with Light Snow 32 0 32 0 100 100 Calm 30.5 1033 2.5 4.02336 0 0
6:15 pm 18:15 Cloudy with Light Snow 32 0 32 0 100 100 SE 3 6 30.5 1033 2 3.218688 0 0
6:35 pm 18:35 Cloudy with Light Snow 32 0 32 0 100 100 Calm 30.53 1034 1.5 2.414016 0 0
6:55 pm 18:55 Cloudy with Light Snow 30 -1 30 -1 100 100 Calm 30.53 1034 1.75 2.816352 0 0
7:15 pm 19:15 Cloudy with Light Snow 30 -1 30 -1 100 100 SE 3 6 30.53 1034 1.5 2.414016 0 0
7:35 pm 19:35 Cloudy with Snow 30 -1 30 -1 100 100 Calm 30.53 1034 1 1.609344 0 0
7:55 pm 19:55 Cloudy with Light Snow 30 -1 30 -1 100 100 Calm 30.5 1033 1.5 2.414016 0 0
8:15 pm 20:15 Cloudy with Light Snow 30 -1 30 -1 100 100 ESE 5 7 30.5 1033 1.75 2.816352 0 0
8:35 pm 20:35 Cloudy with Light Snow 30 -1 30 -1 100 100 Calm 30.5 1033 1.75 2.816352 0 0
8:55 pm 20:55 Cloudy with Light Snow 30 -1 30 -1 100 100 SE 3 6 30.5 1033 1.5 2.414016 0 0
9:15 pm 21:15 Cloudy with Snow 30 -1 30 -1 100 100 SSE 5 7 30.48 1032 1 1.609344 0 0
9:35 pm 21:35 Cloudy with Light Snow 30 -1 30 -1 100 100 SSE 3 6 30.5 1033 1.25 2.01168 0 0
9:55 pm 21:55 Cloudy with Light Snow 30 -1 30 -1 100 100 SE 3 6 30.48 1032 1.75 2.816352 0 0
10:15 pm 22:15 Cloudy with Light Snow 30 -1 30 -1 100 100 SSE 3 6 30.5 1033 3 4.828032 0 0
10:35 pm 22:35 Cloudy with Light Snow 30 -1 30 -1 100 100 SSE 3 6 30.5 1033 2.5 4.02336 0 0
10:55 pm 22:55 Cloudy with Light Snow 30 -1 30 -1 100 100 Calm 30.48 1032 2.5 4.02336 0 0
11:15 pm 23:15 Cloudy with Light Snow 30 -1 30 -1 100 100 Calm 30.48 1032 2.5 4.02336 0 0
11:35 pm 23:35 Cloudy with Light Snow 30 -1 30 -1 100 100 SSE 3 6 30.48 1032 2 3.218688 0 0
11:55 pm 23:55 Cloudy with Light Snow 30 -1 30 -1 100 100 Calm 30.48 1032 1.75 2.816352 0 0

Powered by AerisWeather